Regional Weather Roundup
Issued by NWS

Home | Current Version | Previous Version | Text Only | Print | Product List | Glossary Off
Versions: 1 2 3 4 5 6 7 8 9 10 11 12 13 14 15 16 17 18 19 20 21 22 23 24 25 26 27 28 29 30 31 32 33 34 35 36 37 38 39 40 41 42 43 44 45 46 47 48 49 50

000
ASUS43 KBIS 260302
RWRND

NORTH DAKOTA REGIONAL WEATHER ROUNDUP
NATIONAL WEATHER SERVICE BISMARCK ND
900 PM CST SAT FEB 25 2017

NOTE: "FAIR" INDICATES FEW OR NO CLOUDS BELOW 12,000 FEET WITH NO
SIGNIFICANT WEATHER AND/OR OBSTRUCTIONS TO VISIBILITY.


NDZ001>003-009>011-017-260400-
NORTHWEST NORTH DAKOTA

CITY           SKY/WX    TMP DP  RH WIND       PRES   REMARKS
WILLISTON      FAIR       8   5  87 N5        29.70S WCI   0
MINOT          LGT SNOW  16  12  84 NW8       29.68F WCI   5
$$

NDZ018>021-031>035-040>046-260400-
SOUTHWEST NORTH DAKOTA

CITY           SKY/WX    TMP DP  RH WIND       PRES   REMARKS
BISMARCK       FAIR      22  18  85 VRB3      29.66F
DICKINSON      FAIR      19  15  84 W10       29.61S WCI   7
GARRISON         N/A     15  12  88 N15G23    29.64R WCI   0
HETTINGER ARPT CLOUDY    19  16  88 CALM      29.67S
$$

NDZ004>008-012>016-024-026-027-054-260400-
NORTHEAST NORTH DAKOTA

CITY           SKY/WX    TMP DP  RH WIND       PRES   REMARKS
GRAND FORKS    CLOUDY    20  10  65 N13       29.74F WCI   7
GRND FRKS AFB  PTCLDY    18  10  73 N10       29.74F WCI   6
DEVILS LAKE    LGT SNOW  16  13  88 NE10      29.70F FOG     WCI   4
$$

NDZ022-023-025-028>030-036>039-047>053-260400-
SOUTHEAST NORTH DAKOTA

CITY           SKY/WX    TMP DP  RH WIND       PRES   REMARKS
FARGO          CLOUDY    25  21  85 W6        29.73F WCI  18
JAMESTOWN      FAIR      20  16  84 SW3       29.69F
$$




USA.gov is the U.S. government's official web portal to all federal, state and local government web resources and services.